DW6276 Weather Reports


Display with metric or nautical units.
time (UTC)temp
F
wind
direction
speed
MPH
gust
MPH
rain 1hr
in
rain 24hr
in
rain mn
in
humidity
%
barometer
mb
20260901040015 63 0.0 1.0 0.00 0.00 0.00 90 1013.4
20260901035035 64 0.0 0.0 0.00 0.00 0.00 90 1013.3
20260901034016 65 0.0 2.0 0.00 0.00 0.00 90 1013.3
20260901033035 65 0.0 0.0 0.00 0.00 0.00 90 1013.3
20260901032015 65 0.0 0.0 0.00 0.00 0.00 90 1013.2
20260901031037 65 0.0 0.0 0.00 0.00 0.00 90 1013.1
20260901030017 66 0.0 2.0 0.00 0.00 0.00 90 1013.2
20260901025017 66 0.0 0.0 0.00 0.00 0.00 89 1013.0
20260901024017 67 0.0 0.0 0.00 0.00 0.00 89 1013.1
20260901023017 67 0.0 0.0 0.00 0.00 0.00 89 1013.0
20260901022017 68 0.0 1.0 0.00 0.00 0.00 89 1013.0
20260901021017 68 0.0 1.0 0.00 0.00 0.00 88 1012.9
20260901020017 69 0.0 0.0 0.00 0.00 0.00 87 1013.0
20260901015017 70 0.0 0.0 0.00 0.00 0.00 87 1012.9
20260901014017 70 0 1.0 2.0 0.00 0.00 0.00 87 1012.8
20260901013017 71 0.0 2.0 0.00 0.00 0.00 85 1012.5
20260901012017 72 0.0 1.0 0.00 0.00 0.00 84 1012.4
20260901011017 74 0.0 0.0 0.00 0.00 0.00 83 1012.4
20260901010017 75 0.0 1.0 0.00 0.00 0.00 80 1012.3
20260831234015 83 315 4.0 6.0 0.00 0.00 0.00 62 1012.4
20260831233015 84 315 4.0 6.0 0.00 0.00 0.00 60 1012.3
20260831232016 84 315 4.0 6.0 0.00 0.00 0.00 59 1012.3
20260831231016 84 315 4.0 7.0 0.00 0.00 0.00 58 1012.4
20260831230016 85 315 5.0 8.0 0.00 0.00 0.00 59 1012.4
20260831225015 85 315 6.0 9.0 0.00 0.00 0.00 58 1012.4
20260831224035 86 315 5.0 7.0 0.00 0.00 0.00 59 1012.3
20260831223016 86 315 5.0 7.0 0.00 0.00 0.00 59 1012.3
20260831222016 86 315 4.0 6.0 0.00 0.00 0.00 57 1012.4
20260831221015 85 315 5.0 6.0 0.00 0.00 0.00 59 1012.3
20260831220015 84 315 4.0 6.0 0.00 0.00 0.00 61 1012.2
20260831215035 85 315 5.0 8.0 0.00 0.00 0.00 59 1012.1
20260831214015 86 315 4.0 6.0 0.00 0.00 0.00 58 1012.1
20260831213015 85 338 4.0 6.0 0.00 0.00 0.00 57 1011.8
20260831212015 87 293 7.0 11.0 0.00 0.00 0.00 55 1011.9
20260831211015 87 270 4.0 7.0 0.00 0.00 0.00 57 1011.8
20260831210015 87 338 6.0 8.0 0.00 0.00 0.00 58 1011.9
20260831205015 87 0 4.0 6.0 0.00 0.00 0.00 57 1011.7
20260831204015 87 338 5.0 8.0 0.00 0.00 0.00 54 1011.8
20260831203015 87 315 4.0 7.0 0.00 0.00 0.00 53 1011.6
20260831202015 87 338 4.0 6.0 0.00 0.00 0.00 57 1011.8
20260831201015 87 315 5.0 7.0 0.00 0.00 0.00 59 1011.7
20260831200017 87 0 4.0 6.0 0.00 0.00 0.00 60 1011.7
20260831195017 87 293 5.0 7.0 0.00 0.00 0.00 65 1011.6
20260831194037 87 338 3.0 6.0 0.00 0.00 0.00 66 1011.7
20260831193037 86 315 5.0 7.0 0.00 0.00 0.00 58 1011.7
20260831192017 86 315 4.0 7.0 0.00 0.00 0.00 63 1011.7
20260831191017 86 338 5.0 8.0 0.00 0.00 0.00 62 1011.6
20260831190017 86 338 5.0 8.0 0.00 0.00 0.00 62 1011.7
20260831185017 86 0 5.0 7.0 0.00 0.00 0.00 60 1011.6
20260831184017 86 338 4.0 9.0 0.00 0.00 0.00 63 1011.6
20260831183037 85 315 5.0 8.0 0.00 0.00 0.00 65 1011.7
20260831182017 85 293 4.0 8.0 0.00 0.00 0.00 68 1011.7
20260831181017 84 338 6.0 8.0 0.00 0.00 0.00 66 1011.6
20260831180017 83 315 4.0 9.0 0.00 0.00 0.00 73 1011.7
20260831175017 83 315 4.0 7.0 0.00 0.00 0.00 74 1011.7
20260831174037 83 315 4.0 7.0 0.00 0.00 0.00 75 1011.7
20260831173037 83 338 3.0 6.0 0.00 0.00 0.00 76 1011.7
20260831172017 82 338 4.0 6.0 0.00 0.00 0.00 77 1011.8
20260831171017 82 338 4.0 7.0 0.00 0.00 0.00 77 1012.0
20260831170017 82 315 5.0 9.0 0.00 0.00 0.00 79 1012.2
20260831165017 82 0 5.0 8.0 0.00 0.00 0.00 77 1011.9
20260831164017 82 0 5.0 9.0 0.00 0.00 0.00 79 1011.8
20260831163037 82 315 5.0 9.0 0.00 0.00 0.00 80 1011.7
20260831162017 82 338 5.0 9.0 0.00 0.00 0.00 81 1011.6
20260831161017 81 0 4.0 11.0 0.00 0.00 0.00 82 1011.5
20260831160017 80 0 4.0 6.0 0.00 0.00 0.00 82 1011.3
20260831155017 80 338 4.0 6.0 0.00 0.00 0.00 83 1011.2
20260831154017 80 338 4.0 7.0 0.00 0.00 0.00 83 1011.1
20260831153017 79 315 3.0 5.0 0.00 0.00 0.00 85 1010.9
20260831152037 78 338 3.0 5.0 0.00 0.00 0.00 87 1010.9
20260831151016 77 315 2.0 4.0 0.00 0.00 0.00 87 1010.9
20260831150017 77 315 3.0 5.0 0.00 0.00 0.00 87 1011.0
20260831145016 77 293 3.0 6.0 0.00 0.00 0.00 87 1010.8
20260831144017 76 293 4.0 6.0 0.00 0.00 0.00 87 1011.0
20260831143016 76 293 4.0 6.0 0.00 0.00 0.00 88 1010.8
20260831142016 75 293 3.0 5.0 0.00 0.00 0.00 88 1010.6
20260831141016 75 270 3.0 5.0 0.00 0.00 0.00 89 1010.3
20260831140016 74 270 3.0 5.0 0.00 0.00 0.00 89 1010.2
20260831135016 74 270 3.0 4.0 0.00 0.00 0.00 90 1010.2
20260831134016 74 270 2.0 4.0 0.00 0.00 0.00 91 1009.8
20260831133016 73 270 2.0 4.0 0.00 0.00 0.00 91 1009.8
20260831132016 72 270 2.0 4.0 0.00 0.00 0.00 92 1009.6
20260831131016 72 0.0 2.0 0.00 0.00 0.00 92 1009.5
20260831130016 72 0.0 2.0 0.00 0.00 0.00 92 1009.3
20260831125016 72 0.0 2.0 0.00 0.00 0.00 93 1009.3
20260831124016 70 0.0 0.0 0.00 0.00 0.00 93 1009.3
20260831123017 69 0.0 2.0 0.00 0.00 0.00 93 1009.1
20260831122016 69 0.0 2.0 0.00 0.00 0.00 92 1009.0
20260831121016 69 0.0 0.0 0.00 0.00 0.00 93 1009.1
20260831120016 68 0.0 0.0 0.00 0.00 0.00 92 1008.9
20260831115016 69 0.0 0.0 0.00 0.00 0.00 92 1008.8
20260831114516 69 0.0 0.0 0.00 0.00 0.00 92 1008.7
20260831113536 69 0.0 2.0 0.00 0.00 0.00 92 1008.7
20260831112516 70 0 1.0 2.0 0.00 0.00 0.00 92 1008.4
20260831111516 70 0.0 1.0 0.00 0.00 0.00 92 1008.2
20260831110516 70 0.0 2.0 0.00 0.00 0.00 92 1008.2
20260831105516 70 180 1.0 2.0 0.00 0.00 0.00 92 1008.2
20260831104516 70 0.0 1.0 0.00 0.00 0.00 92 1008.1
20260831103516 70 180 1.0 2.0 0.00 0.00 0.00 92 1008.1
20260831102516 70 180 1.0 2.0 0.00 0.00 0.00 92 1008.1
20260831101516 71 0.0 2.0 0.00 0.00 0.00 91 1008.1
20260831100516 71 0.0 2.0 0.00 0.00 0.00 92 1008.2
20260831095516 71 0.0 2.0 0.00 0.00 0.00 92 1008.1
20260831094516 71 180 1.0 3.0 0.00 0.00 0.00 91 1008.1
20260831093536 71 0 1.0 2.0 0.00 0.00 0.00 91 1008.2
20260831092516 71 0.0 2.0 0.00 0.00 0.00 91 1008.2
20260831091516 72 203 2.0 4.0 0.00 0.00 0.00 91 1008.2
20260831090516 72 0 2.0 5.0 0.00 0.00 0.00 91 1008.3
20260831085516 72 225 2.0 4.0 0.00 0.00 0.00 91 1008.0
20260831084516 72 203 2.0 4.0 0.00 0.00 0.00 91 1008.0
20260831083516 72 225 2.0 4.0 0.00 0.00 0.00 91 1007.9
20260831082516 72 225 3.0 7.0 0.00 0.00 0.00 91 1007.9
20260831081516 72 0 4.0 7.0 0.00 0.00 0.00 91 1007.8
20260831080516 72 203 3.0 5.0 0.00 0.00 0.00 91 1007.8
20260831075516 72 225 2.0 5.0 0.00 0.00 0.00 91 1007.9
20260831074516 72 225 3.0 5.0 0.00 0.00 0.00 91 1007.8
20260831073516 72 0 3.0 6.0 0.00 0.00 0.00 91 1007.7
20260831072516 72 0 4.0 9.0 0.00 0.00 0.00 90 1007.6
20260831071516 72 0 3.0 8.0 0.00 0.00 0.00 90 1007.7
20260831070516 73 0 3.0 7.0 0.00 0.00 0.00 90 1007.7
20260831065516 73 0 3.0 7.0 0.00 0.00 0.00 90 1007.9
20260831064516 73 203 4.0 6.0 0.00 0.00 0.00 90 1007.9
20260831063556 73 180 3.0 7.0 0.00 0.00 0.00 90 1008.1
20260831062516 73 203 4.0 7.0 0.00 0.00 0.00 90 1008.2
20260831061516 73 203 3.0 6.0 0.00 0.00 0.00 90 1008.1
20260831060516 73 203 3.0 5.0 0.00 0.00 0.00 90 1008.2
20260831055515 73 180 3.0 6.0 0.00 0.00 0.00 89 1008.3
20260831054535 73 180 4.0 7.0 0.00 0.00 0.00 89 1008.5
20260831053515 73 180 3.0 5.0 0.00 0.00 0.00 89 1008.6
20260831052555 73 180 3.0 9.0 0.00 0.00 0.00 89 1008.7
20260831051515 74 180 4.0 7.0 0.00 0.00 0.00 89 1008.6
20260831050556 74 180 4.0 7.0 0.00 0.00 0.00 88 1008.6
20260831045516 74 180 5.0 9.0 0.00 0.00 0.00 88 1008.6
20260831044516 74 0 3.0 7.0 0.00 0.00 0.00 88 1008.7
20260831043556 74 180 5.0 7.0 0.00 0.00 0.00 88 1008.9
20260831042556 74 180 4.0 6.0 0.00 0.00 0.00 88 1008.8
20260831041516 75 180 6.0 10.0 0.00 0.00 0.00 87 1008.8